Regional Weather Roundup
Issued by NWS

Home | Current Version | Previous Version | Graphics & Text | Print | Product List | Glossary On
Versions: 1 2 3 4 5 6 7 8 9 10 11 12 13 14 15 16 17 18 19 20 21 22 23 24 25 26 27 28 29 30 31 32 33 34 35 36 37 38 39 40 41 42 43 44 45 46 47 48 49 50
000
ASUS43 KOAX 250310
RWRNE

WEATHER ROUNDUP FOR NEBRASKA
NATIONAL WEATHER SERVICE OMAHA NE
1000 PM CDT SUN MAY 24 2015

NOTES: SATELLITE DATA IS BEING USED TO AUGMENT CLOUD COVER ABOVE
       12000 FEET.
       "FAIR" INDICATES FEW OR NO CLOUDS BELOW 12,000 FEET WITH NO
       SIGNIFICANT WEATHER AND/OR OBSTRUCTIONS TO VISIBILITY.

  * THESE STATIONS DO NOT REPORT WEATHER SUCH AS RAIN...SNOW OR FOG.

NEZ001>004-019>022-054>056-250400-
NEBRASKA PANHANDLE

CITY           SKY/WX    TMP DP  RH WIND       PRES   REMARKS
SCOTTSBLUFF    CLOUDY    54  49  83 W7        29.82R
ALLIANCE       CLOUDY    53  51  93 N18       29.80R
CHADRON        CLOUDY    57  55  93 NE10G18   29.81R
KIMBALL          N/A    N/A N/A N/A MISG        N/A
SIDNEY         CLOUDY    51  48  89 SW3       29.83R
$$

NEZ057>060-069>072-079>082-250400-
SOUTHWEST NEBRASKA

CITY           SKY/WX    TMP DP  RH WIND       PRES   REMARKS
NORTH PLATTE   MOCLDY    59  57  93 SE5       29.79R
IMPERIAL       RAIN      52  50  93 SE10      29.84S
LEXINGTON      PTCLDY    60  57  91 SE5       29.79S
MCCOOK         HVY RAIN  54  51  90 NW15      29.84R FOG
OGALLALA       RAIN      53  51  96 SW9       29.82F
$$

NEZ005>010-023>029-035>040-094-250400-
NORTH CENTRAL NEBRASKA

CITY           SKY/WX    TMP DP  RH WIND       PRES   REMARKS
VALENTINE      CLOUDY    59  56  89 E8        29.80R
AINSWORTH      CLOUDY    60  59  97 E6        29.82R
BROKEN BOW     PTCLDY    61  57  87 S8        29.80R
O`NEILL        CLOUDY    60  60  99 CALM      29.81R
ORD            CLOUDY    62  58  86 SE5       29.78R
THEDFORD       MOCLDY    60  56  89 E5        29.81R
$$

NEZ041-046>049-061>064-073>077-083>087-250400-
SOUTH CENTRAL NEBRASKA

CITY           SKY/WX    TMP DP  RH WIND       PRES   REMARKS
GRAND ISLAND   CLOUDY    63  58  83 S8        29.81R
AURORA         CLOUDY    64  61  90 S9        29.80R
HASTINGS       CLOUDY    63  59  87 S5        29.81R
HEBRON         CLOUDY    63  60  89 S3        29.80R
HOLDREGE       MOCLDY    60  57  91 E8        29.79F
KEARNEY *      CLOUDY    61  57  88 SE8       29.80F
YORK           CLOUDY    63  61  94 S6        29.80R
$$

NEZ011>018-030>034-042>045-250400-
NORTHEAST NEBRASKA

CITY           SKY/WX    TMP DP  RH WIND       PRES   REMARKS
NORFOLK        CLOUDY    61  59  93 CALM      29.78R
ALBION         CLOUDY    58  55  92 CALM      29.79R
BLAIR          CLOUDY    64  60  87 S3        29.78R
COLUMBUS *     CLOUDY    61  55  82 CALM      29.81R
FREMONT        CLOUDY    65  62  90 CALM      29.78R
TEKAMAH        CLOUDY    64  62  93 CALM      29.76R
WAYNE          CLOUDY    61  60  97 CALM      29.78R
$$

NEZ050>053-065>068-078-088>093-250400-
SOUTHEAST NEBRASKA

CITY           SKY/WX    TMP DP  RH WIND       PRES   REMARKS
LINCOLN        CLOUDY    64  61  90 CALM      29.79R
OMAHA EPPLEY   CLOUDY    68  61  78 SW5       29.77R
BEATRICE       CLOUDY    63  60  92 CALM      29.80R
FALLS CITY     CLOUDY    64  61  90 S5        29.78F
NEBRASKA CITY  CLOUDY    64  63  96 SW8       29.79S
PLATTSMOUTH    CLOUDY    64  59  83 S5        29.78S
$$

NEZ044-045-051>053-067-250400-
OMAHA AREA

CITY           SKY/WX    TMP DP  RH WIND       PRES   REMARKS
OMAHA EPPLEY   CLOUDY    68  61  78 SW5       29.77R
BLAIR          CLOUDY    64  60  87 S3        29.78R
FREMONT        CLOUDY    65  62  90 CALM      29.78R
MILLARD        CLOUDY    66  62  85 CALM      29.77R
OFFUTT AFB     CLOUDY    66  61  85 S5        29.77S
PLATTSMOUTH    CLOUDY    64  59  83 S5        29.78S
WAHOO          FAIR      64  61  90 S5        29.78R
$$


USA.gov is the U.S. government's official web portal to all federal, state and local government web resources and services.